SOUTHWICK NATIONAL | 250 QUALIFYING RESULTS (UPDATED)

QUALIFYING RESULTS FROM THE 2019 SOUTHWICK PRO MOTOCROSS OUTDOOR NATIONAL

The 2019 Southwick National is here and we are officially halfway through the 2019 AMA Outdoor National series. After racing on a deep and sandy WW Ranch track last weekend in the hot and humid state of Florida, the riders and teams have headed far North to Massachusetts where they will experience their second sand track of the season. Qualifying is currently underway and MXA will be posting results throughout the day from Southwick, so stay tuned to keep up to date on what’s happening at Southwick.

2019 SOUTHWICK NATIONAL | FULL COVERAGE

Justin Cooper 2_2019 Florida National yamaha photoJustin Cooper grabbed his first ever win last weekend in Florida and he’s your fastest 250 qualifier today at Southwick. 

250 OVERALL QUALIFYING RESULTS

POS. # NAME BEST TIME
1 32 Justin Cooper 2:08.071
2 39 Colt Nichols 2:08.749
3 34 Dylan Ferrandis 2:08.888
4 12 Shane McElrath 2:09.532
5 66 Mitchell Oldenburg 2:09.543
6 92 Adam Cianciarulo 2:09.866
7 26 Alex Martin 2:10.458
8 52 Jordan Bailey 2:10.945
9 196 Hunter Lawrence 2:10.993
10 45 Brandon Hartranft 2:11.328
11 233 Derek Drake 2:11.592
12 23 Chase Sexton 2:11.614
13 701 Jake Pinhancos 2:11.998
14 55 Kyle Peters 2:12.343
15 936 Ty Masterpool 2:12.511
16 187 Walter White 2:12.536
17 194 Jerry Robin 2:12.931
18 345 Joshua Prior 2:13.251
19 59 Nick Gaines 2:13.300
20 31 RJ Hampshire 2:13.359
21 73 Martin Davalos 2:13.430
22 778 James Harrington 2:13.454
23 156 Jacob Hayes 2:13.531
24 167 Cody Williams 2:13.615
25 44 Cameron Mcadoo 2:13.851
26 368 Stephen Czarnota 2:13.898
27 640 Aaron Zielfelder 2:14.169
28 610 Hayden Halstead 2:14.403
29 291 Zane Merrett 2:14.836
30 841 Jeffrey Walker 2:15.112
31 483 Bryton Carroll 2:15.702
32 346 Kevin Moranz 2:15.795
33 889 Cody Williams 2:15.979
34 459 Austin Brooks 2:16.156
35 210 Jonathan Mayzak 2:16.305
36 161 Justin Thompson 2:16.448

The top 36 riders advance to the motos, the rest will compete in an LCQ where the top four will complete the 40-rider starting gate.

37 491 Gabe Gutierres 2:16.531
38 110 Yusuke Watanabe 2:17.039
39 78 Ramyller Alves 2:17.041
40 573 Hunter Calle 2:17.353
41 583 Corey Ridel 2:17.495
42 956 Austin Phelps 2:17.503
43 677 Maurice Healy 2:17.794
44 664 Hunter Stempel 2:17.817
45 719 Joshua Berchem 2:17.850
46 186 Tyler Monks 2:17.906
47 916 Jorge Rubalcava 2:18.158
48 580 Bobby Tiso 2:18.285
49 769 Andrew Rossi 2:18.369
50 203 Andrew Boccarossa 2:18.589
51 390 Salvatore Cusimano 2:18.726
52 242 Shawn MacDonald 2:18.889
53 737 Zachary Butkiewicz 2:19.068
54 407 Benjamin Nelko 2:19.380
55 294 Nicholas McDonnell 2:19.740
56 872 Hannah Hodges 2:19.784
57 423 Matthew Fisk 2:19.829
58 301 Jordan Jarvis 2:19.887
59 514 Anthony Roth 2:19.902
60 162 Maxwell Sanford 2:19.914
61 238 Benjamin Robinson 2:20.082
62 838 Larry McVay 2:20.085
63 334 Christopher Lauro 2:20.155
64 622 Zac Maley 2:20.231
65 432 Salvatore Colangelo 2:20.664
66 516 Yeissen Rubalcava 2:21.195
67 298 Chase Simone 2:21.350
68 340 Blake Taylor 2:21.541
69 168 Cale Kuchnicki 2:21.955
70 964 Mitchell Goheen 2:22.234
71 164 Matthew Klann 2:22.249
72 847 DJ Christie 2:22.742
73 949 James Manni 2:22.795
74 741 Spencer Mang 2:22.831
75 357 Kameron Barboa 2:23.010
76 248 Travis Delnicki 2:23.020
77 190 Matt Boron 2:23.209
78 657 Justin Wolf 2:23.485
79 515 James Doolittle 2:23.535
80 923 Chris Moore 2:23.835
81 870 Colton Camp 2:24.082
82 931 Stephen Vuckson 2:25.264
83 631 Brandon Dickson 2:26.797

 

Cameron McAdoo Florida National 3The Southwick National is known for getting rough, but it starts out smooth and fast in the first qualifying sessions.

Justin Cooper is looking good so far in the sand again, he qualified 1st with his teammates Colt Nichols and Dylan Ferrandis second and third in the first 250 Group A Qualifying session. Shane McElrath was 4th, Mitchell Oldenburg was 5th and the current 250 points leader, Adam Cianciarulo was 6th. Jerry Robin was the fastest privateer, his time earned him 15th in session one.

Click here for 450 Qualifying Results.

250 GROUP A SESSION 1 QUALIFYING RESULTS

POS. # RIDER BEST TIME
1 32 Justin Cooper 2:08.071
2 39 Colt Nichols 2:08.749
3 34 Dylan Ferrandis 2:08.888
4 12 Shane McElrath 2:09.532
5 66 Mitchell Oldenburg 2:09.543
6 92 Adam Cianciarulo 2:09.866
7 26 Alex Martin 2:10.458
8 52 Jordan Bailey 2:10.945
9 196 Hunter Lawrence 2:10.993
10 45 Brandon Hartranft 2:11.328
11 233 Derek Drake 2:11.592
12 23 Chase Sexton 2:12.235
13 55 Kyle Peters 2:12.343
14 936 Ty Masterpool 2:12.511
15 194 Jerry Robin 2:12.931
16 59 Nick Gaines 2:13.300
17 31 RJ Hampshire 2:13.359
18 73 Martin Davalos 2:13.430
19 156 Jacob Hayes 2:13.531
20 44 Cameron Mcadoo 2:13.978
21 291 Zane Merrett 2:14.836
22 346 Kevin Moranz 2:15.795
23 210 Jonathan Mayzak 2:16.305
24 161 Justin Thompson 2:16.448
25 491 Gabe Gutierres 2:16.531
26 110 Yusuke Watanabe 2:17.039
27 78 Ramyller Alves 2:17.041
28 583 Corey Ridel 2:17.495
29 719 Joshua Berchem 2:17.850
30 242 Shawn MacDonald 2:18.889
31 407 Benjamin Nelko 2:19.380
32 238 Benjamin Robinson 2:20.082
33 340 Blake Taylor 2:21.541
34 164 Matthew Klann 2:22.249
35 248 Travis Delnicki 2:23.020
36 631 Brandon Dickson 2:29.054

 

250 GROUP B SESSION 1 QUALIFYING RESULTS

Jake Pinhancos from Rochester, Massachusetts was the fastest rider in the first 250 Group B qualifying session. With the track being so smooth for the first laps, most of the fastest times in each practice session come from lap two. Because the track develops to get rougher so quickly, it’s tough to try and lay down a faster time later in the session after the track is much rougher. Other riders notable to mention from Group B: Cody Williams #167 is riding a Husqvarna TC125 two-stroke and he qualified fifth. Aaron Zielfelder #640 who is the son of Rick Zielfelder, owner and operator at Factory Connection, qualified seventh. Hannah Hodges #872 is one of two girl racers today, she is making her Pro Debut on a Husqvarna FC250. Jordan Jarvis #301 is the other girl racer and she is looking to qualify for her first national after missing the 40 rider gate at High Point and WW Ranch.

POS. # RIDER BEST TIME
1 701 Jake Pinhancos 2:11.998
2 187 Walter White 2:12.536
3 345 Joshua Prior 2:13.251
4 778 James Harrington 2:13.454
5 167 Cody Williams 2:13.615
6 368 Stephen Czarnota 2:13.898
7 640 Aaron Zielfelder 2:14.169
8 610 Hayden Halstead 2:14.403
9 841 Jeffrey Walker 2:15.112
10 483 Bryton Carroll 2:15.702
11 889 Cody Williams 2:15.979
12 459 Austin Brooks 2:16.156
13 573 Hunter Calle 2:17.353
14 956 Austin Phelps 2:17.503
15 677 Maurice Healy 2:17.794
16 664 Hunter Stempel 2:17.817
17 186 Tyler Monks 2:17.906
18 916 Jorge Rubalcava 2:18.158
19 580 Bobby Tiso 2:18.285
20 769 Andrew Rossi 2:18.369
21 203 Andrew Boccarossa 2:18.589
22 390 Salvatore Cusimano 2:18.726
23 737 Zachary Butkiewicz 2:19.068
24 294 Nicholas McDonnell 2:19.740
25 872 Hannah Hodges 2:19.784
26 423 Matthew Fisk 2:19.829
27 301 Jordan Jarvis 2:19.887
28 162 Maxwell Sanford 2:19.914
29 838 Larry McVay 2:20.085
30 334 Christopher Lauro 2:20.155
31 622 Zac Maley 2:20.231
32 432 Salvatore Colangelo 2:20.664
33 516 Yeissen Rubalcava 2:21.195
34 298 Chase Simone 2:21.350
35 514 Anthony Roth 2:21.651
36 168 Cale Kuchnicki 2:21.955
37 964 Mitchell Goheen 2:22.234
38 847 DJ Christie 2:22.742
39 949 James Manni 2:22.795
40 741 Spencer Mang 2:22.831
41 357 Kameron Barboa 2:23.010
42 190 Matt Boron 2:23.209
43 657 Justin Wolf 2:23.485
44 515 James Doolittle 2:23.535
45 923 Chris Moore 2:23.835
46 870 Colton Camp 2:24.082
47 931 Stephen Vuckson 2:25.264

 

You might also like